Alamosa, CO

12:16 PM MDT on July 20, 2017 (GMT -0600)
San Luis Valley Regional / Bergman Field

Weather History for KALS - January, 2014

Change the Weather History Date:

Wednesday, January 29, 2014

  Actual Average Record
Temperature  
Mean Temperature 12 °F 18 °F  
Max Temperature 34 °F 36 °F 59 °F (1986)
Min Temperature -11 °F 0 °F -31 °F (1948)
Degree Days  
Heating Degree Days 53 47  
Month to date heating degree days 1586 1412  
Since 1 July heating degree days 5469 5049  
Cooling Degree Days 0 0  
Month to date cooling degree days 0 0  
Year to date cooling degree days 0 0  
Moisture  
Dew Point -1 °F    
Average Humidity 62    
Maximum Humidity 88    
Minimum Humidity 35    
Precipitation  
Precipitation 0.00 in 0.01 in 0.17 in (1947)
Month to date precipitation T 0.24  
Year to date precipitation T 0.24  
Snow  
Snow 0.00 in 0.10 in 2.00 in (1947)
Month to date snowfall T 3.7  
Since 1 July snowfall 25.6 14.0  
Snow Depth 1.00 in    
Sea Level Pressure  
Sea Level Pressure 30.29 in    
Wind  
Wind Speed 3 mph (West)    
Max Wind Speed 10 mph    
Max Gust Speed 13 mph    
Visibility 10 miles    
Events      
T = Trace of Precipitation, MM = Missing Value Source: NWS Daily Summary

Daily Weather History Graph

Daily Weather History Graph

Search for Another Location

Airport or City:

Trip Planner

Search our weather history database for the weather conditions in past years. The results will help you decide how hot, cold, wet, or windy it might be!

Date:

Astronomy

Jan. 29, 2014 Rise Set
Actual Time 7:09 AM MST 5:24 PM MST
Civil Twilight 6:41 AM MST 5:52 PM MST
Nautical Twilight 6:10 AM MST 6:23 PM MST
Astronomical Twilight 5:39 AM MST 6:54 PM MST
Moon 5:48 AM MST (1/29) 4:27 PM MST (1/29)
Length of Visible Light 11h 10m
Length of Day
10h 15m
Waning Crescent, 2% of the Moon is Illuminated
Jan 29
Waning Crescent
Jan 30
New
Feb 6
First Quarter
Feb 14
Full
Feb 22
Last Quarter

Hourly Weather History & Observations

Time (MST) Temp. Windchill Dew Point Humidity Pressure Visibility Wind Dir Wind Speed Gust Speed Precip Events Conditions
12:52 AM -2.9 °F -11.2 °F -9.0 °F 75% 30.36 in 10.0 mi WSW 3.5 mph - N/A   Clear
1:52 AM -0.0 °F -11.6 °F -6.0 °F 76% 30.32 in 10.0 mi NW 5.8 mph - N/A   Clear
2:52 AM -4.0 °F -14.6 °F -9.0 °F 79% 30.33 in 10.0 mi North 4.6 mph - N/A   Clear
3:52 AM -7.1 °F - -11.9 °F 79% 30.34 in 10.0 mi Calm Calm - N/A   Clear
4:52 AM -9.0 °F - -14.1 °F 79% 30.37 in 10.0 mi Calm Calm - N/A   Clear
5:52 AM -9.9 °F - -15.0 °F 78% 30.45 in 10.0 mi Calm Calm - N/A   Clear
6:52 AM -9.9 °F -23.4 °F -15.0 °F 78% 30.49 in 10.0 mi West 5.8 mph - N/A   Clear
7:52 AM -7.1 °F -15.9 °F -11.9 °F 79% 30.46 in 10.0 mi WSW 3.5 mph - N/A   Clear
8:52 AM -0.9 °F -11.0 °F -6.0 °F 79% 30.50 in 10.0 mi WSW 4.6 mph - N/A   Clear
9:52 AM 8.1 °F 1.4 °F 1.0 °F 73% 30.45 in 10.0 mi SW 3.5 mph - N/A   Clear
10:52 AM 17.1 °F - 3.0 °F 54% 30.38 in 10.0 mi Calm Calm - N/A   Clear
11:52 AM 19.9 °F 14.9 °F 6.1 °F 55% 30.35 in 10.0 mi SSW 3.5 mph - N/A   Clear
12:52 PM 24.1 °F 19.7 °F 7.0 °F 48% 30.26 in 10.0 mi SW 3.5 mph - N/A   Clear
1:52 PM 28.9 °F - 5.0 °F 36% 30.19 in 10.0 mi Calm Calm - N/A   Clear
2:52 PM 30.0 °F - 9.0 °F 41% 30.19 in 10.0 mi Calm Calm - N/A   Clear
3:52 PM 34.0 °F 31.0 °F 10.0 °F 37% 30.17 in 10.0 mi North 3.5 mph - N/A   Clear
4:52 PM 24.1 °F 15.2 °F 10.0 °F 55% 30.22 in 10.0 mi North 8.1 mph - N/A   Clear
5:52 PM 19.0 °F 12.3 °F 6.1 °F 57% 30.24 in 10.0 mi NNW 4.6 mph - N/A   Clear
6:52 PM 18.0 °F - 1.9 °F 50% 30.24 in 10.0 mi Calm Calm - N/A   Clear
7:52 PM 10.9 °F 1.4 °F 3.9 °F 73% 30.27 in 10.0 mi West 5.8 mph - N/A   Clear
8:52 PM 6.1 °F -2.8 °F 1.9 °F 83% 30.24 in 10.0 mi SE 4.6 mph - N/A   Clear
9:52 PM 6.1 °F - 1.9 °F 83% 30.19 in 10.0 mi Calm Calm - N/A   Clear
10:52 PM 7.0 °F - 3.0 °F 84% 30.07 in 10.0 mi Calm Calm - N/A   Clear
11:52 PM 8.1 °F - 3.9 °F 83% 30.06 in 10.0 mi Calm Calm - N/A   Clear